Seldovia, AK

8:07 PM AKDT on August 21, 2017 (GMT -0800)
Seldovia

Weather History for PASO - March, 2013

Change the Weather History Date:

Monday, March 18, 2013

  Actual Average (PAHO) Record (PAHO)
Temperature  
Mean Temperature 24 °F -  
Max Temperature 32 °F 36 °F 54 °F (2015)
Min Temperature 17 °F 21 °F -9 °F (1966)
Degree Days  
Heating Degree Days 40    
Moisture  
Dew Point 15 °F    
Average Humidity 70    
Maximum Humidity 88    
Minimum Humidity 45    
Precipitation  
Precipitation 0.00 in - - ()
Sea Level Pressure  
Sea Level Pressure 29.94 in    
Wind  
Wind Speed 2 mph (North)    
Max Wind Speed 10 mph    
Max Gust Speed 16 mph    
Visibility 10 miles    
Events      
Averages and records for this station are not official NWS values.
T = Trace of Precipitation, MM = Missing Value Source: NWS Daily Summary

Daily Weather History Graph

Daily Weather History Graph

Search for Another Location

Airport or City:

Trip Planner

Search our weather history database for the weather conditions in past years. The results will help you decide how hot, cold, wet, or windy it might be!

Date:

Astronomy

Mar. 18, 2013 Rise Set
Actual Time 8:12 AM AKDT 8:17 PM AKDT
Civil Twilight 7:32 AM AKDT 8:58 PM AKDT
Nautical Twilight 6:43 AM AKDT 9:47 PM AKDT
Astronomical Twilight 5:51 AM AKDT 10:40 PM AKDT
Moon 10:55 AM AKDT (3/18) 3:49 AM AKDT (3/18)
Length of Visible Light 13h 26m
Length of Day
12h 04m
Waxing Crescent, 42% of the Moon is Illuminated
Mar 18
Waxing Crescent
Mar 19
First Quarter
Mar 27
Full
Apr 2
Last Quarter
Apr 10
New

Hourly Weather History & Observations

Time (AKDT) Temp. Windchill Dew Point Humidity Pressure Visibility Wind Dir Wind Speed Gust Speed Precip Events Conditions
12:53 AM 23.0 °F - 18.0 °F 81% 30.04 in 10.0 mi Calm Calm - N/A   Clear
1:53 AM 21.9 °F - 18.0 °F 85% 30.02 in 10.0 mi Calm Calm - N/A   Overcast
2:53 AM 21.0 °F - 18.0 °F 88% 30.01 in 10.0 mi Calm Calm - N/A   Clear
3:53 AM 19.9 °F - 16.0 °F 85% 30.00 in 10.0 mi Calm Calm - N/A   Clear
4:53 AM 18.0 °F - 15.1 °F 88% 29.99 in 10.0 mi Calm Calm - N/A   Clear
5:53 AM 18.0 °F - 15.1 °F 88% 29.98 in 10.0 mi Calm Calm - N/A   Scattered Clouds
6:53 AM 18.0 °F - 15.1 °F 88% 29.96 in 10.0 mi Calm Calm - N/A   Mostly Cloudy
7:53 AM 17.1 °F - 12.9 °F 84% 29.96 in 10.0 mi Calm Calm - N/A   Clear
8:53 AM 17.1 °F - 12.9 °F 84% 29.96 in 10.0 mi Calm Calm - N/A   Clear
9:53 AM 19.0 °F - 15.1 °F 85% 29.95 in 10.0 mi Calm Calm - N/A   Clear
10:53 AM 23.0 °F - 19.9 °F 88% 29.95 in 10.0 mi Calm Calm - N/A   Clear
11:53 AM 30.0 °F 26.5 °F 19.0 °F 64% 29.94 in 10.0 mi Variable 3.5 mph - N/A   Clear
12:53 PM 30.9 °F 25.2 °F 16.0 °F 54% 29.94 in 10.0 mi Variable 5.8 mph - N/A   Clear
1:53 PM 32.0 °F 25.6 °F 14.0 °F 48% 29.93 in 10.0 mi North 6.9 mph - N/A   Clear
2:53 PM 32.0 °F 24.8 °F 14.0 °F 48% 29.92 in 10.0 mi North 8.1 mph - N/A   Clear
3:53 PM 32.0 °F 23.6 °F 12.9 °F 45% 29.92 in 10.0 mi NNE 10.4 mph 16.1 mph N/A   Clear
4:53 PM 30.9 °F 24.3 °F 14.0 °F 50% 29.92 in 10.0 mi North 6.9 mph - N/A   Clear
5:53 PM 30.9 °F 23.5 °F 12.9 °F 47% 29.91 in 10.0 mi North 8.1 mph - N/A   Clear
6:53 PM 30.0 °F 24.1 °F 14.0 °F 51% 29.91 in 10.0 mi Variable 5.8 mph - N/A   Clear
7:53 PM 28.9 °F 25.2 °F 15.1 °F 56% 29.90 in 10.0 mi Variable 3.5 mph - N/A   Partly Cloudy
8:53 PM 28.0 °F - 15.1 °F 58% 29.90 in 10.0 mi Calm Calm - N/A   Clear
9:53 PM 27.0 °F - 15.1 °F 61% 29.89 in 10.0 mi Calm Calm - N/A   Clear
10:53 PM 24.1 °F - 15.1 °F 69% 29.89 in 10.0 mi Calm Calm - N/A   Clear
11:53 PM 21.9 °F - 15.1 °F 75% 29.88 in 10.0 mi Calm Calm - N/A   Clear